[[{"header":{"parameterUnit":"m.s-1","parameterCategory":1,"la1":30.2991,"la2":30.254,"lo1":-89.0895,"lo2":-89.0444,"dy":0.0017,"dx":0.0017,"nx":28,"ny":28,"refTime":"2023-10-05T03:00:00:Z","depth":0,"parameterNumber":2,"parameterNumberName":"U-component_of_WINDS"},"data":[0,0,0,0,0,0,0,0,0,0,0,0,0,0,0,0,0,0,0,0,0,0,0,0,0,0,0,0,0,0,0,0,0,0,0,0,0,0,0,0,0,0,0,0,0,0,0,0,0,0,0,0,0,0,0,0,0,0,-4.0891,-4.0892,0,-4.0995,-4.0996,-4.0997,-4.0949,-4.0947,-4.0944,-4.0942,-4.1045,-4.105,-4.1055,0,0,0,0,0,0,0,0,0,0,0,0,0,-4.0648,-4.0653,-4.0891,-4.0892,-4.0893,-4.0995,-4.0996,-4.0998,-4.095,-4.0946,-4.0943,-4.094,-4.1043,-4.105,-4.1056,0,0,0,0,0,0,0,0,0,0,0,0,0,-4.0753,-4.0655,-4.089,-4.0882,-4.0882,-4.0994,-4.0996,-4.0998,-4.095,-4.0946,-4.0942,-4.0939,-4.1041,-4.1049,-4.1057,-4.1183,0,0,-4.108,-4.1084,0,0,0,0,0,0,0,0,-4.0747,-4.0762,-4.0882,-4.0882,-4.0883,-4.0955,-4.0949,-4.106,-4.0951,-4.0924,-4.0941,-4.0937,-4.1018,-4.1028,-4.1056,-4.1188,-4.1192,-4.1081,-4.1086,-4.1089,-4.1091,0,0,0,0,0,0,0,-4.074,-4.0757,-4.0932,-4.0883,-4.0884,-4.0872,-4.0883,-4.0969,-4.0992,-4.0926,-4.0923,-4.0936,-4.1018,-4.1048,-4.1058,-4.1194,-4.1081,-4.1088,-4.1093,-4.1096,-4.1437,-4.1441,0,0,0,0,0,0,-4.0733,-4.0752,-4.0928,-4.0935,-4.0804,-4.088,-4.0891,-4.0936,-4.0991,-4.0995,-4.094,-4.0934,-4.1037,-4.1049,-4.1061,-4.1214,-4.1089,-4.1096,-4.1101,-4.1432,-4.1438,-4.1442,0,0,0,0,0,0,-4.0728,-4.075,-4.0924,-4.0843,-4.0864,-4.0888,-4.0938,-4.094,-4.097,-4.1001,-4.1004,-4.0967,-4.1034,-4.105,-4.1154,-4.1217,-4.11,-4.1107,-4.1427,-4.1434,-4.144,-4.1521,0,0,0,0,0,0,-4.0722,-4.0748,-4.0797,-4.0844,-4.0868,-4.1016,-4.0942,-4.0945,-4.0984,-4.0978,-4.1027,-4.1032,-4.1032,-4.1142,-4.1161,-4.1226,-4.1113,-4.1422,-4.143,-4.1438,-4.1513,-4.1529,-4.1544,0,0,0,0,0,-4.0713,-4.0814,-4.0799,-4.0821,-4.093,-4.102,-4.1033,-4.1033,-4.099,-4.1039,-4.1058,-4.103,-4.1207,-4.1153,-4.1174,-4.1242,-4.1418,-4.1428,-4.1437,-4.1506,-4.1526,-4.1543,0,0,0,0,0,0,-4.0772,-4.082,-4.0804,-4.0924,-4.0968,-4.1011,-4.1073,-4.1055,-4.1111,-4.1103,-4.1099,-4.1111,-4.1218,-4.124,-4.118,-4.1368,-4.1305,-4.132,-4.135,-4.137,-4.1385,-4.1378,-4.1119,0,0,0,0,0,-4.0799,-4.0869,-4.0907,-4.1008,-4.1032,-4.1049,-4.1088,-4.1084,-4.113,-4.1148,-4.1175,-4.1219,-4.1285,-4.1328,-4.139,-4.1515,-4.1526,-4.1572,-4.1588,-4.16,-4.1613,-4.1683,-4.1704,-4.1475,-4.1475,-4.1475,0,0,-4.0855,-4.089,-4.0934,-4.1021,-4.1055,-4.1127,-4.1065,-4.1143,-4.1197,-4.1159,-4.126,-4.1281,-4.133,-4.1446,-4.1498,-4.1467,-4.1679,-4.1613,-4.1623,-4.1629,-4.1695,-4.1717,-4.1736,-4.1482,-4.148,-4.1479,0,0,-4.0995,-4.1028,-4.1118,-4.1154,-4.1207,-4.1218,-4.1239,-4.1286,-4.1299,-4.14,-4.1374,-4.1437,-4.155,-4.1587,-4.1621,-4.1777,-4.1753,-4.1797,-4.1878,-4.1946,-4.1964,-4.198,-4.2038,-4.2058,-4.1809,-4.181,-4.181,0,-4.1058,-4.1167,-4.1165,-4.1247,-4.1287,-4.1258,-4.1348,-4.1383,-4.1453,-4.1481,-4.1446,-4.1588,-4.1619,-4.1744,-4.1783,-4.181,-4.1835,-4.1792,-4.1962,-4.1978,-4.1993,-4.2048,-4.2069,-4.1815,-4.1814,-4.1814,-4.1813,0,-4.1243,-4.1319,-4.1384,-4.1455,-4.1501,-4.1587,-4.1599,-4.1646,-4.1638,-4.1653,-4.1757,-4.1793,-4.1863,-4.1892,-4.1885,-4.2017,-4.1996,-4.1962,-4.1899,-4.202,-4.2071,-4.2092,-4.1822,-4.182,-4.1819,-4.1817,0,0,-4.1422,-4.1493,-4.1517,-4.1549,-4.1606,-4.1665,-4.1749,-4.1819,-4.1861,-4.191,-4.1981,-4.2079,-4.2048,-4.2086,-4.2082,-4.2142,-4.2266,-4.21,-4.2101,-4.2131,-4.2415,-4.2442,-4.2466,-4.225,-4.2254,-4.2257,-4.2412,0,-4.1568,-4.1718,-4.172,-4.1857,-4.1928,-4.1902,-4.1976,-4.2019,-4.2035,-4.2097,-4.2114,-4.2184,-4.2137,-4.216,-4.2218,-4.2238,-4.2323,-4.2227,-4.2317,-4.232,-4.2307,-4.2493,-4.2521,-4.2665,-4.2431,-4.2435,-4.2437,0,-4.1757,-4.1815,-4.1961,-4.2009,-4.2039,-4.2106,-4.2171,-4.223,-4.2279,-4.2286,-4.233,-4.2318,-4.2405,-4.2339,-4.2458,-4.2393,-4.243,-4.2446,-4.2451,-4.2461,-4.2387,-4.2508,-4.271,-4.2732,-4.2468,-4.2466,-4.2464,0,-4.1876,-4.199,-4.2092,-4.2121,-4.2179,-4.2227,-4.2254,-4.2298,-4.2341,-4.2397,-4.2425,-4.249,-4.2527,-4.2577,-4.2583,-4.2535,-4.2704,-4.2638,-4.2714,-4.2714,-4.2751,-4.2749,-4.2964,-4.2773,-4.2773,-4.2772,-4.2772,0,-4.2039,-4.213,-4.2147,-4.221,-4.2311,-4.2312,-4.2411,-4.2433,-4.2474,-4.2541,-4.2521,-4.2584,-4.2588,-4.2652,-4.2657,-4.2757,-4.2772,-4.2781,-4.2782,-4.2784,-4.2783,-4.2809,-4.2799,-4.2778,-4.2777,-4.2775,-4.2775,0,-4.219,-4.2205,-4.2315,-4.2362,-4.2376,-4.2448,-4.2489,-4.2549,-4.2563,-4.2648,-4.2668,-4.2691,-4.2767,-4.2778,-4.2865,-4.2869,-4.2989,-4.2978,-4.2973,-4.2972,-4.3047,-4.3041,-4.3287,-4.332,-4.3106,-4.3108,-4.311,0,-4.2293,-4.2363,-4.2418,-4.2462,-4.2492,-4.2563,-4.2607,-4.261,-4.2657,-4.2718,-4.2772,-4.2845,-4.2904,-4.3026,-4.305,-4.3117,-4.3109,-4.3191,-4.3119,-4.312,-4.3112,-4.3109,-4.3116,-4.3205,-4.3207,-4.3209,-4.3211,0,-4.2477,-4.2481,-4.2546,-4.2614,-4.2667,-4.2721,-4.2771,-4.2808,-4.2818,-4.2871,-4.2949,-4.2995,-4.3086,-4.316,-4.3227,-4.3253,-4.3235,-4.3233,-4.3254,-4.3258,-4.3253,-4.3258,-4.3012,-4.3227,-4.3226,-4.3225,-4.3224,-4.3223,-4.2608,-4.2669,-4.2718,-4.2791,-4.283,-4.2878,-4.2938,-4.2961,-4.3026,-4.3101,-4.3099,-4.3185,-4.3232,-4.3321,-4.3352,-4.3419,-4.3393,-4.3423,-4.3431,-4.3439,-4.3447,-4.3242,-4.3431,-4.3431,-4.343,-4.343,-4.343,0,-4.2791,-4.2822,-4.289,-4.2962,-4.302,-4.2997,-4.3052,-4.3102,-4.3178,-4.3225,-4.3284,-4.3374,-4.3446,-4.3477,-4.3547,-4.3595,-4.3588,-4.3614,-4.3611,-4.3618,-4.3466,-4.3441,-4.3618,-4.3618,-4.3618,-4.3618,-4.3618,-4.3618,-4.2894,-4.2997,-4.3008,-4.313,-4.3159,-4.3244,-4.3278,-4.3322,-4.336,-4.3462,-4.3522,-4.3542,-4.3582,-4.3656,-4.3721,-4.3728,-4.3756,-4.3785,-4.3789,-4.3647,-4.3628,-4.361,-4.3587,-4.3791,-4.3791,-4.3935,-4.3936,-4.3937]},{"header":{"parameterUnit":"m.s-1","parameterCategory":1,"la1":30.2991,"la2":30.254,"lo1":-89.0895,"lo2":-89.0444,"dy":0.0017,"dx":0.0017,"nx":28,"ny":28,"refTime":"2023-10-05T03:00:00:Z","depth":0,"parameterNumber":3,"parameterNumberName":"V-component_of_WINDS"},"data":[0,0,0,0,0,0,0,0,0,0,0,0,0,0,0,0,0,0,0,0,0,0,0,0,0,0,0,0,0,0,0,0,0,0,0,0,0,0,0,0,0,0,0,0,0,0,0,0,0,0,0,0,0,0,0,0,0,0,-0.4164,-0.4163,0,-0.4052,-0.4051,-0.4049,-0.3941,-0.394,-0.3939,-0.3937,-0.382,-0.3819,-0.3817,0,0,0,0,0,0,0,0,0,0,0,0,0,-0.4285,-0.4283,-0.4165,-0.4163,-0.4162,-0.4052,-0.4051,-0.4049,-0.3942,-0.394,-0.3938,-0.3937,-0.3821,-0.3819,-0.3817,0,0,0,0,0,0,0,0,0,0,0,0,0,-0.4208,-0.4282,-0.4165,-0.4095,-0.4088,-0.4052,-0.405,-0.4049,-0.3942,-0.394,-0.3938,-0.3936,-0.3822,-0.3819,-0.3816,-0.384,0,0,-0.3808,-0.3807,0,0,0,0,0,0,0,0,-0.4213,-0.4204,-0.4107,-0.41,-0.4091,-0.4009,-0.405,-0.3979,-0.3942,-0.3997,-0.3937,-0.3935,-0.3884,-0.3876,-0.386,-0.3835,-0.383,-0.3808,-0.3806,-0.3805,-0.3804,0,0,0,0,0,0,0,-0.4218,-0.4208,-0.412,-0.4105,-0.4096,-0.4069,-0.4056,-0.4036,-0.3954,-0.3992,-0.3984,-0.3972,-0.388,-0.3863,-0.3856,-0.3828,-0.3808,-0.3805,-0.3803,-0.3802,-0.3817,-0.3818,0,0,0,0,0,0,-0.4234,-0.4213,-0.4123,-0.4116,-0.4148,-0.4068,-0.4053,-0.4037,-0.3954,-0.3939,-0.3974,-0.3968,-0.3868,-0.386,-0.3852,-0.3873,-0.3805,-0.3802,-0.3801,-0.3815,-0.3817,-0.3819,0,0,0,0,0,0,-0.4237,-0.4227,-0.4128,-0.4163,-0.4148,-0.4068,-0.4051,-0.4036,-0.4019,-0.394,-0.3925,-0.3972,-0.3866,-0.3856,-0.3844,-0.3868,-0.3801,-0.3798,-0.3812,-0.3815,-0.3818,-0.3918,0,0,0,0,0,0,-0.4241,-0.4229,-0.4238,-0.4164,-0.4147,-0.4123,-0.4052,-0.4035,-0.4014,-0.4005,-0.3934,-0.392,-0.3864,-0.3849,-0.3841,-0.3863,-0.3796,-0.381,-0.3814,-0.3817,-0.3912,-0.3924,-0.3934,0,0,0,0,0,-0.4246,-0.427,-0.4239,-0.4229,-0.4156,-0.4124,-0.4114,-0.405,-0.4017,-0.4025,-0.3974,-0.3922,-0.3867,-0.3848,-0.3839,-0.386,-0.3808,-0.3812,-0.3817,-0.3907,-0.3922,-0.3934,0,0,0,0,0,0,-0.4348,-0.4259,-0.4223,-0.4225,-0.4183,-0.4106,-0.4114,-0.4068,-0.4034,-0.4027,-0.3948,-0.3932,-0.393,-0.3894,-0.3875,-0.3879,-0.383,-0.3833,-0.3902,-0.3915,-0.3926,-0.3934,-0.3794,0,0,0,0,0,-0.4372,-0.4354,-0.4277,-0.4285,-0.4266,-0.4194,-0.4178,-0.4132,-0.4086,-0.4067,-0.4016,-0.3972,-0.3945,-0.3928,-0.3899,-0.3907,-0.3889,-0.3917,-0.3928,-0.3938,-0.3941,-0.3942,-0.3953,-0.3834,-0.3834,-0.3834,0,0,-0.4418,-0.4367,-0.4361,-0.4305,-0.4267,-0.425,-0.418,-0.4165,-0.4151,-0.4065,-0.405,-0.4012,-0.3957,-0.3956,-0.3953,-0.3926,-0.397,-0.3944,-0.3952,-0.3949,-0.3947,-0.3959,-0.3969,-0.3837,-0.3837,-0.3836,0,0,-0.4494,-0.4455,-0.4457,-0.4421,-0.4365,-0.4317,-0.4318,-0.4248,-0.4219,-0.4204,-0.4139,-0.4121,-0.4076,-0.404,-0.4016,-0.4079,-0.403,-0.4072,-0.4129,-0.4131,-0.414,-0.4148,-0.4169,-0.4178,-0.4076,-0.4076,-0.4076,0,-0.4559,-0.4531,-0.4464,-0.4452,-0.4429,-0.4352,-0.4353,-0.4321,-0.4258,-0.4244,-0.4215,-0.4157,-0.4115,-0.4103,-0.4119,-0.4103,-0.41,-0.4079,-0.4145,-0.4152,-0.4158,-0.4177,-0.4186,-0.4081,-0.4081,-0.408,-0.408,0,-0.4612,-0.4595,-0.4603,-0.4545,-0.4523,-0.4518,-0.445,-0.4436,-0.4392,-0.4347,-0.4332,-0.428,-0.4238,-0.4232,-0.419,-0.4215,-0.42,-0.4159,-0.4108,-0.4176,-0.4192,-0.42,-0.4089,-0.4087,-0.4085,-0.4084,0,0,-0.4747,-0.4654,-0.4658,-0.463,-0.4564,-0.4548,-0.454,-0.45,-0.4489,-0.4449,-0.4439,-0.4403,-0.4365,-0.4338,-0.4291,-0.4293,-0.4345,-0.4251,-0.4249,-0.4269,-0.4368,-0.4397,-0.4407,-0.4313,-0.4314,-0.4315,-0.4372,0,-0.4811,-0.4792,-0.4731,-0.473,-0.4712,-0.4639,-0.4631,-0.459,-0.4548,-0.4526,-0.4479,-0.4455,-0.4407,-0.439,-0.4389,-0.4339,-0.4363,-0.4334,-0.4301,-0.4301,-0.4315,-0.4416,-0.4447,-0.4503,-0.4378,-0.4379,-0.438,0,-0.4881,-0.4847,-0.4844,-0.4779,-0.4769,-0.4763,-0.4721,-0.4702,-0.4653,-0.4622,-0.4593,-0.4541,-0.4527,-0.4482,-0.4461,-0.4443,-0.4426,-0.44,-0.44,-0.4393,-0.4343,-0.441,-0.452,-0.4528,-0.439,-0.4389,-0.4388,0,-0.4978,-0.4931,-0.4923,-0.4902,-0.4826,-0.4824,-0.4792,-0.4741,-0.4721,-0.4685,-0.467,-0.4633,-0.4612,-0.4584,-0.4523,-0.4496,-0.4509,-0.4459,-0.4482,-0.4484,-0.4486,-0.4487,-0.4593,-0.4479,-0.4479,-0.4479,-0.4479,0,-0.5054,-0.5054,-0.4966,-0.4961,-0.4959,-0.4891,-0.4891,-0.4852,-0.4808,-0.4793,-0.4728,-0.4715,-0.4636,-0.4615,-0.4567,-0.4557,-0.4548,-0.4522,-0.4509,-0.4527,-0.453,-0.4513,-0.4507,-0.4481,-0.4481,-0.448,-0.448,0,-0.516,-0.5101,-0.5087,-0.5017,-0.4999,-0.5001,-0.494,-0.4932,-0.4888,-0.487,-0.4862,-0.4791,-0.4762,-0.4699,-0.4653,-0.4621,-0.4622,-0.46,-0.4639,-0.463,-0.4656,-0.4654,-0.4754,-0.4763,-0.4646,-0.4648,-0.4649,0,-0.5211,-0.521,-0.514,-0.5126,-0.5097,-0.5076,-0.5055,-0.4988,-0.4969,-0.4913,-0.4912,-0.4878,-0.4848,-0.4805,-0.4749,-0.4713,-0.4688,-0.4726,-0.4682,-0.47,-0.4687,-0.4687,-0.4685,-0.4735,-0.4737,-0.4738,-0.4739,0,-0.5307,-0.5278,-0.5251,-0.5215,-0.5192,-0.516,-0.5124,-0.5116,-0.504,-0.5022,-0.4992,-0.4969,-0.4923,-0.4889,-0.4846,-0.4812,-0.4762,-0.4754,-0.4757,-0.4774,-0.4796,-0.4782,-0.4663,-0.4751,-0.475,-0.4749,-0.4748,-0.4748,-0.5386,-0.5381,-0.5331,-0.5304,-0.527,-0.5238,-0.5227,-0.5182,-0.5156,-0.5113,-0.5076,-0.5049,-0.5,-0.4937,-0.4906,-0.4884,-0.4859,-0.4864,-0.4865,-0.4867,-0.4874,-0.4802,-0.4876,-0.4876,-0.4875,-0.4875,-0.4874,0,-0.5476,-0.5441,-0.5417,-0.5369,-0.5347,-0.5305,-0.5263,-0.5248,-0.5226,-0.5185,-0.5157,-0.5122,-0.509,-0.5033,-0.4995,-0.4989,-0.4965,-0.4981,-0.498,-0.4972,-0.4899,-0.4899,-0.5001,-0.5001,-0.5001,-0.5001,-0.5001,-0.5001,-0.5521,-0.5511,-0.5477,-0.5449,-0.5414,-0.5388,-0.5368,-0.5338,-0.5305,-0.527,-0.5243,-0.5207,-0.5159,-0.5118,-0.5086,-0.507,-0.5058,-0.5081,-0.5058,-0.499,-0.4978,-0.4966,-0.4966,-0.508,-0.508,-0.5132,-0.5133,-0.5133]}]]